DW3371 Weather Reports


time (UTC)temp
F
wind
direction
speed
knots
gust
knots
rain 1hr
in
rain 24hr
in
rain mn
in
humidity
%
barometer
mb
20260506093248 50 51 7.8 15.6 0.00 0.00 0.00 79 1012.0
20260506090240 51 9 7.8 13.9 0.00 0.00 0.00 76 1011.8
20260506083245 50 0 7.8 14.8 0.00 0.00 0.00 78 1011.8
20260506080244 48 50 7.0 14.8 0.00 0.00 0.00 81 1011.9
20260506073241 48 0 8.7 20.0 0.00 0.00 0.00 78 1011.8
20260506070240 47 9 7.8 16.5 0.00 0.00 0.00 80 1011.3
20260506060239 44 0 7.0 15.6 0.00 0.00 0.00 85 1011.2
20260506050241 42 0 6.1 11.3 0.00 0.00 0.00 86 1011.3
20260506043234 42 0 5.2 11.3 0.00 0.00 0.00 86 1011.4
20260506033235 43 0 5.2 11.3 0.00 0.00 0.00 84 1011.8
20260506030234 43 350 7.0 13.0 0.00 0.00 0.00 84 1011.7
20260506023234 44 350 7.0 11.3 0.00 0.00 0.00 82 1011.9
20260506020235 45 0 6.1 11.3 0.00 0.00 0.00 81 1011.9
20260506013233 47 0 6.1 13.0 0.00 0.00 0.00 79 1012.0
20260506010234 48 35 7.0 13.9 0.00 0.00 0.00 78 1012.0
20260506003234 48 348 6.1 11.3 0.00 0.00 0.00 77 1012.2
20260506000234 49 0 6.1 13.0 0.00 0.00 0.00 77 1012.2
20260505233234 49 19 6.1 10.4 0.00 0.00 0.00 76 1012.4
20260505230235 50 16 4.3 11.3 0.00 0.00 0.00 76 1012.5
20260505223234 51 26 5.2 12.2 0.00 0.00 0.00 77 1012.6
20260505220240 51 64 5.2 13.0 0.00 0.00 0.00 74 1012.5
20260505210240 52 45 5.2 13.0 0.00 0.00 0.00 77 1012.4
20260505203233 52 23 5.2 12.2 0.00 0.00 0.00 77 1012.3
20260505193241 53 40 6.1 15.6 0.00 0.00 0.00 75 1011.7
20260505190233 54 52 7.0 16.5 0.00 0.00 0.00 73 1011.4
20260505183256 55 25 8.7 20.0 0.00 0.00 0.00 71 1011.3
20260505180234 57 355 8.7 18.2 0.00 0.00 0.00 67 1011.0
20260505173233 58 56 7.8 14.8 0.00 0.00 0.00 65 1010.9
20260505170233 59 42 7.8 15.6 0.00 0.00 0.00 62 1010.8
20260505163239 61 69 6.1 14.8 0.00 0.00 0.00 62 1010.8
20260505160237 59 52 7.0 15.6 0.00 0.00 0.00 65 1010.6
20260505153237 60 44 6.1 13.0 0.00 0.00 0.00 66 1010.6
20260505150253 60 44 5.2 14.8 0.00 0.00 0.00 64 1010.7
20260505140232 63 355 3.5 9.6 0.00 0.00 0.00 53 1010.6
20260505130230 63 5 4.3 9.6 0.00 0.00 0.00 55 1010.7
20260505123232 61 22 2.6 9.6 0.00 0.00 0.00 59 1010.7
20260505120227 61 5 5.2 10.4 0.00 0.00 0.00 61 1010.9
20260505113227 60 355 5.2 10.4 0.00 0.00 0.00 63 1011.1
20260505110231 60 35 3.5 8.7 0.00 0.00 0.00 64 1011.4
20260505100223 58 337 3.5 8.7 0.00 0.00 0.00 69 1011.6